Regional Weather Roundup
Issued by NWS Kansas City/Pleasant Hill, MO

Home | Current Version | Previous Version | Text Only | Print | Product List | Glossary On
Versions: 1 2 3 4 5 6 7 8 9 10 11 12 13 14 15 16 17 18 19 20 21 22 23 24 25 26
000
ASUS43 KEAX 250910
RWREAX

WEATHER ROUNDUP FOR EASTERN KANSAS AND NORTHWEST MISSOURI
NATIONAL WEATHER SERVICE KANSAS CITY/PLEASANT HILL MO
300 AM CST SUN FEB 25 2018

KSZ040-057-103>105-MOZ028-029-037-043-251000-
...KANSAS CITY METROPOLITAN AREA...

CITY           SKY/WX    TMP DP  RH WIND       PRES   REMARKS
K.C. INTL      CLEAR     29  21  72 W7        29.95F WCI  22
K.C. DOWNTOWN  CLEAR     32  24  72 SW3       29.97S
LEES SUMMIT    CLEAR     32  26  78 W5        29.96F WCI  27
OLATHE - IXD   CLEAR     26  24  92 SW5       29.98S WCI  20
OLATHE - OJC   CLEAR     28  26  92 W5        29.97S WCI  23
LAWRENCE       CLEAR     27  24  89 W6        29.98S WCI  20

$$

MOZ001>008-011>017-020>025-030>033-038>040-044>046-053-054-251000-
...NORTHERN AND CENTRAL MISSOURI...

CITY           SKY/WX    TMP DP  RH WIND       PRES   REMARKS
ST. JOSEPH     CLEAR     27  22  81 SW8       29.96S WCI  19
MOSBY            N/A     32  27  80 W5        29.97S WCI  27
WARRENSBURG    CLEAR     32  28  86 SW5       29.98R WCI  27
WHITEMAN AFB   CLEAR    N/A N/A N/A W8        29.94S
CLINTON        CLEAR     32  30  93 W5        29.99F WCI  27
SEDALIA        CLEAR     34  32  92 W12       29.97R WCI  25
WARSAW         NOT AVBL
CHILLICOTHE      N/A     32  26  78 VRB5      29.93S WCI  27
KIRKSVILLE     CLEAR     32  28  85 W16G23    29.87R WCI  21

$$

MOZ041-047>049-056>058-063>065-088>090-097-251000-
...EASTERN AND SOUTHERN MISSOURI...

CITY           SKY/WX    TMP DP  RH WIND       PRES   REMARKS
ST. LOUIS INTL PTCLDY    38  31  76 W14       29.94R WCI  30
SPIRIT OF STL  CLEAR     38  32  79 W15G22    29.94R WCI  29
COLUMBIA       CLEAR     33  30  88 W12       29.94S WCI  24
JEFFERSON CITY CLEAR     35  30  82 W10       29.97R WCI  27
ROLLA          CLEAR     32  30  92 W10       29.96S WCI  24
OSAGE BEACH    CLEAR     33  30  88 SW6       29.99S WCI  28
SPRINGFIELD    CLEAR     34  31  88 SW5       29.98F WCI  30
JOPLIN         CLEAR     32  31  96 CALM      30.01S
WEST PLAINS    CLEAR     34  30  85 W5        30.01R WCI  30

$$

IAZ060-094-KSZ022-034>040-054-083-096-NEZ052-066-093-251000-
...KANSAS...SOUTHEAST NEBRASKA AND IOWA...

CITY           SKY/WX    TMP DP  RH WIND       PRES   REMARKS
TOPEKA         CLEAR     30  25  81 SW5       29.98S WCI  25
MANHATTAN      CLEAR     26  19  74 CALM      29.99R
EMPORIA        CLEAR     25  19  78 W7        29.99F WCI  17
CHANUTE        CLEAR     30  25  81 W5        30.00F WCI  25
WICHITA        CLEAR     30  23  75 NW6       29.98F WCI  24
OMAHA          CLEAR     24  15  68 W7        29.87S WCI  16
LINCOLN        CLEAR     21  16  81 SE5       29.90R WCI  15
FALLS CITY     CLEAR     27  20  75 SW9       29.93S WCI  18
LAMONI         CLEAR     28  20  71 W16       29.86R WCI  16
DES MOINES     PTCLDY    28  23  81 W18       29.81R WCI  15

$$





USA.gov is the U.S. government's official web portal to all federal, state and local government web resources and services.